Time,TemperatureF,DewpointF,PressureIn,WindDirection,WindDirectionDegrees,WindSpeedMPH,WindSpeedGustMPH,Humidity,HourlyPrecipIn,Conditions,Clouds,dailyrainin,SoftwareType,DateUTC
2013-10-07 00:01:00,73.5,65.5,29.87,SSW,204,5.0,5.0,76,0.00,,---,0.00,VWS V14.01,2013-10-07 04:01:00,
2013-10-07 00:06:00,73.5,65.5,29.87,SW,236,0.0,5.0,76,0.00,,---,0.00,VWS V14.01,2013-10-07 04:06:00,
2013-10-07 00:11:00,73.3,65.3,29.87,WSW,246,0.0,5.0,76,0.00,,---,0.00,VWS V14.01,2013-10-07 04:11:00,
2013-10-07 00:16:00,73.0,65.4,29.87,South,186,0.0,5.0,77,0.00,,---,0.00,VWS V14.01,2013-10-07 04:16:00,
2013-10-07 00:21:00,72.8,65.2,29.87,SW,224,0.0,5.0,77,0.00,,---,0.00,VWS V14.01,2013-10-07 04:21:00,
2013-10-07 00:26:00,72.6,65.3,29.86,SW,224,0.0,5.0,78,0.00,,---,0.00,VWS V14.01,2013-10-07 04:26:00,
2013-10-07 00:31:00,72.3,65.1,29.86,SW,224,0.0,0.0,78,0.00,,---,0.00,VWS V14.01,2013-10-07 04:31:00,
2013-10-07 00:36:00,72.1,65.2,29.86,SW,222,0.0,2.0,79,0.00,,---,0.00,VWS V14.01,2013-10-07 04:36:00,
2013-10-07 00:41:00,71.8,64.9,29.86,SW,227,0.0,2.0,79,0.00,,---,0.00,VWS V14.01,2013-10-07 04:41:00,
2013-10-07 00:46:00,71.7,64.8,29.85,South,182,1.0,3.0,79,0.00,,---,0.00,VWS V14.01,2013-10-07 04:46:00,
2013-10-07 00:51:00,71.8,64.9,29.85,South,182,0.0,3.0,79,0.00,,---,0.00,VWS V14.01,2013-10-07 04:51:00,
2013-10-07 00:56:00,71.7,64.8,29.85,South,182,0.0,3.0,79,0.00,,---,0.00,VWS V14.01,2013-10-07 04:56:00,
2013-10-07 01:01:00,71.5,64.7,29.85,South,182,0.0,0.0,79,0.00,,---,0.00,VWS V14.01,2013-10-07 05:01:00,
2013-10-07 01:06:00,71.3,64.8,29.85,WSW,240,0.0,4.0,80,0.00,,---,0.00,VWS V14.01,2013-10-07 05:06:00,
2013-10-07 01:11:00,71.4,64.9,29.85,South,187,6.0,10.0,80,0.00,,---,0.00,VWS V14.01,2013-10-07 05:11:00,
2013-10-07 01:16:00,72.0,65.1,29.85,South,180,5.0,10.0,79,0.00,,---,0.00,VWS V14.01,2013-10-07 05:16:00,
2013-10-07 01:21:00,72.5,65.3,29.84,SW,223,2.0,11.0,78,0.00,,---,0.00,VWS V14.01,2013-10-07 05:21:00,
2013-10-07 01:26:00,72.8,65.2,29.84,South,189,3.0,11.0,77,0.00,,---,0.00,VWS V14.01,2013-10-07 05:26:00,
2013-10-07 01:31:00,72.9,65.3,29.84,SW,233,6.0,6.0,77,0.00,,---,0.00,VWS V14.01,2013-10-07 05:31:00,
2013-10-07 01:36:00,72.9,65.3,29.84,SSW,211,0.0,7.0,77,0.00,,---,0.00,VWS V14.01,2013-10-07 05:36:00,
2013-10-07 01:41:00,72.6,65.0,29.84,SSE,155,2.0,7.0,77,0.00,,---,0.00,VWS V14.01,2013-10-07 05:41:00,
2013-10-07 01:46:00,72.4,64.8,29.84,SW,222,0.0,7.0,77,0.00,,---,0.00,VWS V14.01,2013-10-07 05:46:00,
2013-10-07 01:51:00,72.2,65.0,29.84,SW,232,0.0,7.0,78,0.00,,---,0.00,VWS V14.01,2013-10-07 05:51:00,
2013-10-07 01:56:00,72.0,64.8,29.84,SW,232,0.0,7.0,78,0.00,,---,0.00,VWS V14.01,2013-10-07 05:56:00,
2013-10-07 02:01:00,71.8,64.9,29.83,WSW,237,0.0,0.0,79,0.00,,---,0.00,VWS V14.01,2013-10-07 06:01:00,
2013-10-07 02:06:00,71.7,64.8,29.83,SW,233,4.0,7.0,79,0.00,,---,0.00,VWS V14.01,2013-10-07 06:06:00,
2013-10-07 02:11:00,71.9,65.0,29.83,SW,218,1.0,7.0,79,0.00,,---,0.00,VWS V14.01,2013-10-07 06:11:00,
2013-10-07 02:16:00,72.0,65.1,29.83,SSW,203,0.0,8.0,79,0.00,,---,0.00,VWS V14.01,2013-10-07 06:16:00,
2013-10-07 02:21:00,72.2,65.3,29.83,WSW,241,0.0,8.0,79,0.00,,---,0.00,VWS V14.01,2013-10-07 06:21:00,
2013-10-07 02:25:00,72.2,65.3,29.83,SSW,213,3.0,10.0,79,0.00,,---,0.00,VWS V14.01,2013-10-07 06:25:00,
2013-10-07 02:30:00,72.2,65.3,29.83,South,175,1.0,2.0,79,0.00,,---,0.00,VWS V14.01,2013-10-07 06:30:00,
2013-10-07 02:35:00,72.1,65.6,29.84,SSW,196,0.0,5.0,80,0.00,,---,0.00,VWS V14.01,2013-10-07 06:35:00,
2013-10-07 02:40:00,72.2,65.7,29.84,SSW,210,0.0,5.0,80,0.00,,---,0.00,VWS V14.01,2013-10-07 06:40:00,
2013-10-07 02:45:00,72.2,65.7,29.83,SSW,197,2.0,5.0,80,0.00,,---,0.00,VWS V14.01,2013-10-07 06:45:00,
2013-10-07 02:50:00,72.1,65.2,29.83,SW,228,4.0,6.0,79,0.00,,---,0.00,VWS V14.01,2013-10-07 06:50:00,
2013-10-07 02:55:00,72.2,65.3,29.82,South,186,0.0,6.0,79,0.00,,---,0.00,VWS V14.01,2013-10-07 06:55:00,
2013-10-07 03:00:00,72.0,65.1,29.83,SW,227,0.0,0.0,79,0.00,,---,0.00,VWS V14.01,2013-10-07 07:00:00,
2013-10-07 03:05:00,71.7,64.8,29.82,SW,227,0.0,1.0,79,0.00,,---,0.00,VWS V14.01,2013-10-07 07:05:00,
2013-10-07 03:10:00,71.6,64.8,29.82,SSW,196,1.0,6.0,79,0.00,,---,0.00,VWS V14.01,2013-10-07 07:10:00,
2013-10-07 03:15:00,71.4,64.6,29.82,SSW,196,0.0,6.0,79,0.00,,---,0.00,VWS V14.01,2013-10-07 07:15:00,
2013-10-07 03:20:00,71.3,64.5,29.82,WSW,242,0.0,6.0,79,0.00,,---,0.00,VWS V14.01,2013-10-07 07:20:00,
2013-10-07 03:25:00,71.2,64.7,29.82,West,259,1.0,7.0,80,0.00,,---,0.00,VWS V14.01,2013-10-07 07:25:00,
2013-10-07 03:30:00,71.1,64.6,29.82,West,259,0.0,0.0,80,0.00,,---,0.00,VWS V14.01,2013-10-07 07:30:00,
2013-10-07 03:35:00,70.8,64.3,29.82,West,271,0.0,4.0,80,0.00,,---,0.00,VWS V14.01,2013-10-07 07:35:00,
2013-10-07 03:40:00,70.6,64.5,29.82,West,271,0.0,4.0,81,0.00,,---,0.00,VWS V14.01,2013-10-07 07:40:00,
2013-10-07 03:45:00,70.3,64.2,29.82,West,271,0.0,4.0,81,0.00,,---,0.00,VWS V14.01,2013-10-07 07:45:00,
2013-10-07 03:50:00,69.9,64.2,29.81,West,271,0.0,4.0,82,0.00,,---,0.00,VWS V14.01,2013-10-07 07:50:00,
2013-10-07 03:55:00,69.6,63.9,29.80,West,271,0.0,4.0,82,0.00,,---,0.00,VWS V14.01,2013-10-07 07:55:00,
2013-10-07 04:00:00,69.4,64.0,29.80,SSE,152,2.0,4.0,83,0.00,,---,0.00,VWS V14.01,2013-10-07 08:00:00,
2013-10-07 04:05:00,69.5,63.8,29.80,SSE,152,0.0,0.0,82,0.00,,---,0.00,VWS V14.01,2013-10-07 08:05:00,
2013-10-07 04:10:00,69.6,63.9,29.80,SSW,202,0.0,1.0,82,0.00,,---,0.00,VWS V14.01,2013-10-07 08:10:00,
2013-10-07 04:15:00,69.6,63.9,29.80,SSW,202,0.0,1.0,82,0.00,,---,0.00,VWS V14.01,2013-10-07 08:15:00,
2013-10-07 04:20:00,69.7,63.6,29.80,SSW,202,0.0,2.0,81,0.00,,---,0.00,VWS V14.01,2013-10-07 08:20:00,
2013-10-07 04:25:00,69.8,63.7,29.79,SSW,202,0.0,2.0,81,0.00,,---,0.00,VWS V14.01,2013-10-07 08:25:00,
2013-10-07 04:30:00,69.9,63.8,29.79,SSW,204,0.0,2.0,81,0.00,,---,0.00,VWS V14.01,2013-10-07 08:30:00,
2013-10-07 04:35:00,70.1,63.7,29.79,SSW,194,0.0,2.0,80,0.00,,---,0.00,VWS V14.01,2013-10-07 08:35:00,
2013-10-07 04:40:00,70.4,63.9,29.79,SW,219,1.0,6.0,80,0.00,,---,0.00,VWS V14.01,2013-10-07 08:40:00,
2013-10-07 04:45:00,70.8,64.0,29.79,South,186,5.0,6.0,79,0.00,,---,0.00,VWS V14.01,2013-10-07 08:45:00,
2013-10-07 04:50:00,71.7,64.5,29.78,South,180,3.0,10.0,78,0.00,,---,0.00,VWS V14.01,2013-10-07 08:50:00,
2013-10-07 04:55:00,72.3,64.3,29.78,South,187,2.0,10.0,76,0.00,,---,0.00,VWS V14.01,2013-10-07 08:55:00,
2013-10-07 05:00:00,72.5,64.5,29.78,South,179,3.0,10.0,76,0.00,,---,0.00,VWS V14.01,2013-10-07 09:00:00,
2013-10-07 05:05:00,72.5,64.1,29.78,South,179,4.0,5.0,75,0.00,,---,0.00,VWS V14.01,2013-10-07 09:05:00,
2013-10-07 05:10:00,72.7,64.3,29.78,South,185,4.0,13.0,75,0.00,,---,0.00,VWS V14.01,2013-10-07 09:10:00,
2013-10-07 05:15:00,72.9,64.1,29.77,South,186,2.0,13.0,74,0.00,,---,0.00,VWS V14.01,2013-10-07 09:15:00,
2013-10-07 05:20:00,73.0,64.2,29.77,SSE,166,4.0,13.0,74,0.00,,---,0.00,VWS V14.01,2013-10-07 09:20:00,
2013-10-07 05:25:00,73.1,64.3,29.77,South,190,6.0,13.0,74,0.00,,---,0.00,VWS V14.01,2013-10-07 09:25:00,
2013-10-07 05:30:00,73.2,64.4,29.78,South,190,0.0,13.0,74,0.00,,---,0.00,VWS V14.01,2013-10-07 09:30:00,
2013-10-07 05:35:00,73.3,64.5,29.78,South,186,0.0,8.0,74,0.00,,---,0.00,VWS V14.01,2013-10-07 09:35:00,
2013-10-07 05:40:00,73.2,64.4,29.78,South,191,1.0,11.0,74,0.00,,---,0.00,VWS V14.01,2013-10-07 09:40:00,
2013-10-07 05:45:00,73.1,64.3,29.78,South,189,9.0,11.0,74,0.00,,---,0.00,VWS V14.01,2013-10-07 09:45:00,
2013-10-07 05:50:00,73.2,64.8,29.78,SW,219,2.0,11.0,75,0.00,,---,0.00,VWS V14.01,2013-10-07 09:50:00,
2013-10-07 05:55:00,73.0,64.6,29.78,South,184,4.0,11.0,75,0.00,,---,0.00,VWS V14.01,2013-10-07 09:55:00,
2013-10-07 06:00:00,73.0,65.0,29.78,SW,234,1.0,11.0,76,0.00,,---,0.00,VWS V14.01,2013-10-07 10:00:00,
2013-10-07 06:05:00,73.2,65.2,29.78,South,186,2.0,11.0,76,0.00,,---,0.00,VWS V14.01,2013-10-07 10:05:00,
2013-10-07 06:10:00,73.4,65.4,29.77,SSE,165,0.0,11.0,76,0.00,,---,0.00,VWS V14.01,2013-10-07 10:10:00,
2013-10-07 06:15:00,73.5,65.5,29.77,South,190,3.0,11.0,76,0.00,,---,0.00,VWS V14.01,2013-10-07 10:15:00,
2013-10-07 06:20:00,73.4,65.4,29.76,South,171,4.0,11.0,76,0.00,,---,0.00,VWS V14.01,2013-10-07 10:20:00,
2013-10-07 06:25:00,73.4,65.4,29.76,SSE,159,3.0,11.0,76,0.00,,---,0.00,VWS V14.01,2013-10-07 10:25:00,
2013-10-07 06:30:00,73.1,65.8,29.76,SSE,165,2.0,11.0,78,0.00,,---,0.00,VWS V14.01,2013-10-07 10:30:00,
2013-10-07 06:35:00,72.8,65.9,29.76,South,187,2.0,8.0,79,0.00,,---,0.00,VWS V14.01,2013-10-07 10:35:00,
2013-10-07 06:40:00,72.6,66.1,29.75,South,176,1.0,8.0,80,0.00,,---,0.00,VWS V14.01,2013-10-07 10:40:00,
2013-10-07 06:45:00,72.1,65.9,29.75,SSW,192,1.0,8.0,81,0.00,,---,0.00,VWS V14.01,2013-10-07 10:45:00,
2013-10-07 06:50:00,71.7,65.9,29.75,South,175,0.0,8.0,82,0.00,,---,0.00,VWS V14.01,2013-10-07 10:50:00,
2013-10-07 06:55:00,71.3,66.2,29.75,South,175,0.0,8.0,84,0.00,,---,0.00,VWS V14.01,2013-10-07 10:55:00,
2013-10-07 07:00:00,71.0,66.3,29.75,South,190,0.0,8.0,85,0.00,,---,0.00,VWS V14.01,2013-10-07 11:00:00,
2013-10-07 07:05:00,70.7,66.0,29.75,South,190,0.0,0.0,85,0.00,,---,0.00,VWS V14.01,2013-10-07 11:05:00,
2013-10-07 07:10:00,70.4,66.3,29.75,South,171,0.0,2.0,87,0.00,,---,0.00,VWS V14.01,2013-10-07 11:10:00,
2013-10-07 07:15:00,70.2,66.2,29.74,SSE,158,3.0,3.0,87,0.00,,---,0.00,VWS V14.01,2013-10-07 11:15:00,
2013-10-07 07:20:00,70.2,66.2,29.74,South,184,2.0,5.0,87,0.00,,---,0.00,VWS V14.01,2013-10-07 11:20:00,
2013-10-07 07:25:00,70.3,66.6,29.74,South,184,1.0,5.0,88,0.00,,---,0.00,VWS V14.01,2013-10-07 11:25:00,
2013-10-07 07:30:00,70.6,66.9,29.74,South,187,3.0,6.0,88,0.00,,---,0.00,VWS V14.01,2013-10-07 11:30:00,
2013-10-07 07:35:00,71.2,67.1,29.74,South,183,5.0,11.0,87,0.00,,---,0.00,VWS V14.01,2013-10-07 11:35:00,
2013-10-07 07:40:00,71.4,67.0,29.73,South,186,0.0,11.0,86,0.00,,---,0.00,VWS V14.01,2013-10-07 11:40:00,
2013-10-07 07:45:00,71.5,67.1,29.76,WSW,250,7.0,11.0,86,0.00,,---,0.00,VWS V14.01,2013-10-07 11:45:00,
2013-10-07 07:50:00,69.8,64.4,29.79,NW,316,7.0,18.0,83,0.21,,---,0.21,VWS V14.01,2013-10-07 11:50:00,
2013-10-07 07:55:00,67.1,62.8,29.80,South,186,3.0,18.0,86,0.27,,---,0.27,VWS V14.01,2013-10-07 11:55:00,
2013-10-07 07:59:00,65.5,62.2,29.80,South,180,3.0,18.0,89,0.29,,---,0.29,VWS V14.01,2013-10-07 11:59:00,
2013-10-07 08:04:00,64.7,61.7,29.80,South,184,3.0,10.0,90,0.30,,---,0.30,VWS V14.01,2013-10-07 12:04:00,
2013-10-07 08:09:00,64.5,61.8,29.80,SSW,206,0.0,10.0,91,0.31,,---,0.31,VWS V14.01,2013-10-07 12:09:00,
2013-10-07 08:14:00,64.5,61.8,29.80,SSW,198,0.0,10.0,91,0.32,,---,0.32,VWS V14.01,2013-10-07 12:14:00,
2013-10-07 08:19:00,64.6,61.9,29.80,SSW,195,0.0,10.0,91,0.32,,---,0.32,VWS V14.01,2013-10-07 12:19:00,
2013-10-07 08:24:00,64.5,62.1,29.80,SSW,192,0.0,11.0,92,0.33,,---,0.33,VWS V14.01,2013-10-07 12:24:00,
2013-10-07 08:29:00,64.5,62.1,29.81,SSW,207,2.0,11.0,92,0.35,,---,0.35,VWS V14.01,2013-10-07 12:29:00,
2013-10-07 08:34:00,64.4,62.0,29.80,South,178,1.0,5.0,92,0.35,,---,0.35,VWS V14.01,2013-10-07 12:34:00,
2013-10-07 08:39:00,64.3,61.9,29.80,South,170,2.0,5.0,92,0.39,,---,0.39,VWS V14.01,2013-10-07 12:39:00,
2013-10-07 08:44:00,64.2,61.8,29.80,South,178,2.0,5.0,92,0.39,,---,0.39,VWS V14.01,2013-10-07 12:44:00,
2013-10-07 08:49:00,64.2,61.8,29.80,SW,227,0.0,5.0,92,0.40,,---,0.40,VWS V14.01,2013-10-07 12:49:00,
2013-10-07 08:54:00,64.3,61.9,29.80,SW,227,0.0,5.0,92,0.41,,---,0.41,VWS V14.01,2013-10-07 12:54:00,
2013-10-07 08:59:00,64.3,61.9,29.80,SW,227,0.0,5.0,92,0.41,,---,0.41,VWS V14.01,2013-10-07 12:59:00,
2013-10-07 09:04:00,64.3,61.9,29.80,SW,227,0.0,1.0,92,0.13,,---,0.42,VWS V14.01,2013-10-07 13:04:00,
2013-10-07 09:09:00,64.3,61.9,29.81,SW,227,0.0,1.0,92,0.18,,---,0.47,VWS V14.01,2013-10-07 13:09:00,
2013-10-07 09:14:00,64.3,61.9,29.80,SW,227,0.0,1.0,92,0.24,,---,0.53,VWS V14.01,2013-10-07 13:14:00,
2013-10-07 09:19:00,64.4,62.0,29.81,South,178,0.0,2.0,92,0.28,,---,0.57,VWS V14.01,2013-10-07 13:19:00,
2013-10-07 09:24:00,64.4,62.3,29.79,South,178,1.0,2.0,93,0.30,,---,0.59,VWS V14.01,2013-10-07 13:24:00,
2013-10-07 09:29:00,64.4,62.3,29.79,South,178,0.0,2.0,93,0.32,,---,0.61,VWS V14.01,2013-10-07 13:29:00,
2013-10-07 09:34:00,64.5,62.4,29.81,South,178,0.0,1.0,93,0.29,,---,0.64,VWS V14.01,2013-10-07 13:34:00,
2013-10-07 09:39:00,64.5,62.4,29.80,South,178,0.0,1.0,93,0.32,,---,0.67,VWS V14.01,2013-10-07 13:39:00,
2013-10-07 09:44:00,64.6,62.5,29.79,South,178,0.0,1.0,93,0.34,,---,0.69,VWS V14.01,2013-10-07 13:44:00,
2013-10-07 09:49:00,64.5,62.4,29.81,South,178,0.0,1.0,93,0.35,,---,0.70,VWS V14.01,2013-10-07 13:49:00,
2013-10-07 09:54:00,64.6,62.5,29.80,South,178,0.0,1.0,93,0.37,,---,0.72,VWS V14.01,2013-10-07 13:54:00,
2013-10-07 09:59:00,64.5,62.4,29.80,SW,229,0.0,2.0,93,0.39,,---,0.74,VWS V14.01,2013-10-07 13:59:00,
2013-10-07 10:04:00,64.5,62.4,29.79,WSW,241,0.0,3.0,93,0.35,,---,0.76,VWS V14.01,2013-10-07 14:04:00,
2013-10-07 10:09:00,64.5,62.4,29.78,SSW,207,0.0,4.0,93,0.37,,---,0.78,VWS V14.01,2013-10-07 14:09:00,
2013-10-07 10:14:00,64.6,62.5,29.79,SW,221,0.0,4.0,93,0.39,,---,0.80,VWS V14.01,2013-10-07 14:14:00,
2013-10-07 10:19:00,64.7,62.6,29.80,SW,228,0.0,5.0,93,0.40,,---,0.81,VWS V14.01,2013-10-07 14:19:00,
2013-10-07 10:24:00,64.7,62.6,29.78,WSW,248,0.0,5.0,93,0.41,,---,0.82,VWS V14.01,2013-10-07 14:24:00,
2013-10-07 10:29:00,64.7,62.6,29.78,SW,225,0.0,5.0,93,0.43,,---,0.84,VWS V14.01,2013-10-07 14:29:00,
2013-10-07 10:34:00,64.7,62.6,29.77,WSW,245,2.0,3.0,93,0.23,,---,0.85,VWS V14.01,2013-10-07 14:34:00,
2013-10-07 10:39:00,64.7,62.6,29.78,WSW,239,0.0,3.0,93,0.24,,---,0.86,VWS V14.01,2013-10-07 14:39:00,
2013-10-07 10:44:00,64.7,62.6,29.77,SSW,209,0.0,3.0,93,0.25,,---,0.87,VWS V14.01,2013-10-07 14:44:00,
2013-10-07 10:49:00,64.7,62.6,29.78,SW,233,0.0,5.0,93,0.25,,---,0.87,VWS V14.01,2013-10-07 14:49:00,
2013-10-07 10:54:00,64.8,62.7,29.78,SW,229,0.0,5.0,93,0.25,,---,0.87,VWS V14.01,2013-10-07 14:54:00,
2013-10-07 10:59:00,64.8,62.7,29.78,SW,229,0.0,5.0,93,0.25,,---,0.87,VWS V14.01,2013-10-07 14:59:00,
2013-10-07 11:04:00,64.8,62.7,29.77,SW,225,0.0,1.0,93,0.12,,---,0.87,VWS V14.01,2013-10-07 15:04:00,
2013-10-07 11:09:00,64.9,62.8,29.77,SW,225,0.0,1.0,93,0.13,,---,0.88,VWS V14.01,2013-10-07 15:09:00,
2013-10-07 11:14:00,64.8,62.7,29.78,SW,225,0.0,1.0,93,0.14,,---,0.89,VWS V14.01,2013-10-07 15:14:00,
2013-10-07 11:19:00,64.9,62.8,29.77,SW,225,0.0,1.0,93,0.15,,---,0.90,VWS V14.01,2013-10-07 15:19:00,
2013-10-07 11:24:00,64.9,62.8,29.77,SW,225,0.0,1.0,93,0.15,,---,0.90,VWS V14.01,2013-10-07 15:24:00,
2013-10-07 11:29:00,64.9,62.8,29.77,SW,223,0.0,1.0,93,0.17,,---,0.92,VWS V14.01,2013-10-07 15:29:00,
2013-10-07 11:34:00,65.0,62.9,29.78,WSW,240,0.0,3.0,93,0.08,,---,0.92,VWS V14.01,2013-10-07 15:34:00,
2013-10-07 11:39:00,65.1,63.0,29.78,WSW,244,2.0,3.0,93,0.08,,---,0.92,VWS V14.01,2013-10-07 15:39:00,
2013-10-07 11:44:00,65.2,63.1,29.77,WNW,301,1.0,4.0,93,0.08,,---,0.92,VWS V14.01,2013-10-07 15:44:00,
2013-10-07 11:49:00,65.2,63.1,29.78,WNW,301,0.0,4.0,93,0.08,,---,0.92,VWS V14.01,2013-10-07 15:49:00,
2013-10-07 11:54:00,65.4,63.3,29.79,WNW,298,0.0,4.0,93,0.08,,---,0.92,VWS V14.01,2013-10-07 15:54:00,
2013-10-07 11:59:00,65.4,63.3,29.80,SW,229,1.0,4.0,93,0.08,,---,0.92,VWS V14.01,2013-10-07 15:59:00,
2013-10-07 12:04:00,65.2,63.1,29.80,WSW,238,0.0,4.0,93,0.06,,---,0.93,VWS V14.01,2013-10-07 16:04:00,
2013-10-07 12:09:00,65.2,63.1,29.81,NW,307,5.0,5.0,93,0.07,,---,0.94,VWS V14.01,2013-10-07 16:09:00,
2013-10-07 12:14:00,63.9,61.8,29.82,NNW,337,3.0,13.0,93,0.09,,---,0.96,VWS V14.01,2013-10-07 16:14:00,
2013-10-07 12:19:00,62.9,60.8,29.80,NNW,330,4.0,13.0,93,0.09,,---,0.96,VWS V14.01,2013-10-07 16:19:00,
2013-10-07 12:24:00,62.3,60.2,29.80,NNW,348,2.0,13.0,93,0.09,,---,0.96,VWS V14.01,2013-10-07 16:24:00,
2013-10-07 12:29:00,62.1,60.1,29.82,NNW,348,0.0,13.0,93,0.09,,---,0.96,VWS V14.01,2013-10-07 16:29:00,
2013-10-07 12:34:00,62.1,60.1,29.82,NNW,348,0.0,0.0,93,0.04,,---,0.96,VWS V14.01,2013-10-07 16:34:00,
2013-10-07 12:39:00,62.2,60.2,29.82,NE,42,0.0,2.0,93,0.04,,---,0.96,VWS V14.01,2013-10-07 16:39:00,
2013-10-07 12:44:00,62.2,60.2,29.82,SE,142,1.0,6.0,93,0.04,,---,0.96,VWS V14.01,2013-10-07 16:44:00,
2013-10-07 12:49:00,62.1,60.1,29.82,SE,143,0.0,6.0,93,0.04,,---,0.96,VWS V14.01,2013-10-07 16:49:00,
2013-10-07 12:54:00,61.9,59.9,29.82,SE,142,0.0,6.0,93,0.04,,---,0.96,VWS V14.01,2013-10-07 16:54:00,
2013-10-07 12:59:00,62.0,60.0,29.82,SE,142,0.0,6.0,93,0.04,,---,0.96,VWS V14.01,2013-10-07 16:59:00,
2013-10-07 13:04:00,62.1,60.1,29.82,SW,223,0.0,1.0,93,0.03,,---,0.96,VWS V14.01,2013-10-07 17:04:00,
2013-10-07 13:09:00,62.4,60.3,29.83,SW,217,0.0,1.0,93,0.03,,---,0.96,VWS V14.01,2013-10-07 17:09:00,
2013-10-07 13:14:00,62.7,60.7,29.83,SSW,208,1.0,3.0,93,0.03,,---,0.96,VWS V14.01,2013-10-07 17:14:00,
2013-10-07 13:19:00,62.9,60.8,29.83,SSW,207,2.0,3.0,93,0.03,,---,0.96,VWS V14.01,2013-10-07 17:19:00,
2013-10-07 13:24:00,63.2,61.2,29.83,SSW,206,0.0,3.0,93,0.03,,---,0.96,VWS V14.01,2013-10-07 17:24:00,
2013-10-07 13:29:00,63.6,61.5,29.83,SSW,206,0.0,3.0,93,0.03,,---,0.96,VWS V14.01,2013-10-07 17:29:00,
2013-10-07 13:34:00,63.6,61.5,29.84,SSW,207,0.0,1.0,93,0.00,,---,0.96,VWS V14.01,2013-10-07 17:34:00,
2013-10-07 13:39:00,63.5,61.4,29.84,SW,234,3.0,3.0,93,0.00,,---,0.96,VWS V14.01,2013-10-07 17:39:00,
2013-10-07 13:44:00,64.0,61.9,29.84,North,355,0.0,3.0,93,0.00,,---,0.96,VWS V14.01,2013-10-07 17:44:00,
2013-10-07 13:49:00,63.7,61.3,29.84,North,9,4.0,5.0,92,0.00,,---,0.96,VWS V14.01,2013-10-07 17:49:00,
2013-10-07 13:53:00,64.1,61.1,29.84,North,360,5.0,7.0,90,0.00,,---,0.96,VWS V14.01,2013-10-07 17:53:00,
2013-10-07 13:58:00,64.7,60.1,29.84,NNW,331,0.0,9.0,85,0.00,,---,0.96,VWS V14.01,2013-10-07 17:58:00,
2013-10-07 14:03:00,65.0,59.4,29.84,NNW,336,0.0,9.0,82,0.00,,---,0.96,VWS V14.01,2013-10-07 18:03:00,
2013-10-07 14:08:00,65.0,58.7,29.84,North,360,3.0,10.0,80,0.00,,---,0.96,VWS V14.01,2013-10-07 18:08:00,
2013-10-07 14:13:00,65.2,58.5,29.84,WSW,237,3.0,10.0,79,0.00,,---,0.96,VWS V14.01,2013-10-07 18:13:00,
2013-10-07 14:18:00,65.4,59.1,29.84,WSW,250,0.0,10.0,80,0.00,,---,0.96,VWS V14.01,2013-10-07 18:18:00,
2013-10-07 14:23:00,65.6,58.6,29.84,NNW,331,5.0,10.0,78,0.00,,---,0.96,VWS V14.01,2013-10-07 18:23:00,
2013-10-07 14:28:00,66.2,58.0,29.84,North,5,5.0,10.0,75,0.00,,---,0.96,VWS V14.01,2013-10-07 18:28:00,
2013-10-07 14:33:00,66.7,57.4,29.85,NW,323,5.0,11.0,72,0.00,,---,0.96,VWS V14.01,2013-10-07 18:33:00,
2013-10-07 14:38:00,67.1,57.8,29.85,North,350,6.0,11.0,72,0.00,,---,0.96,VWS V14.01,2013-10-07 18:38:00,
2013-10-07 14:43:00,66.9,57.2,29.85,NW,323,0.0,11.0,71,0.00,,---,0.96,VWS V14.01,2013-10-07 18:43:00,
2013-10-07 14:48:00,67.0,57.3,29.85,NNW,336,3.0,11.0,71,0.00,,---,0.96,VWS V14.01,2013-10-07 18:48:00,
2013-10-07 14:53:00,67.2,57.5,29.85,NNW,337,5.0,11.0,71,0.00,,---,0.96,VWS V14.01,2013-10-07 18:53:00,
2013-10-07 14:58:00,67.0,56.9,29.85,WNW,299,0.0,11.0,70,0.00,,---,0.96,VWS V14.01,2013-10-07 18:58:00,
2013-10-07 15:03:00,66.9,57.6,29.85,NNW,333,1.0,8.0,72,0.00,,---,0.96,VWS V14.01,2013-10-07 19:03:00,
2013-10-07 15:08:00,67.1,58.5,29.85,NNE,17,4.0,8.0,74,0.00,,---,0.96,VWS V14.01,2013-10-07 19:08:00,
2013-10-07 15:13:00,67.3,58.0,29.86,NNW,348,3.0,8.0,72,0.00,,---,0.96,VWS V14.01,2013-10-07 19:13:00,
2013-10-07 15:18:00,67.5,57.8,29.85,NNE,16,2.0,8.0,71,0.00,,---,0.96,VWS V14.01,2013-10-07 19:18:00,
2013-10-07 15:23:00,67.9,57.0,29.86,NW,325,5.0,8.0,68,0.00,,---,0.96,VWS V14.01,2013-10-07 19:23:00,
2013-10-07 15:28:00,67.7,56.4,29.86,NW,324,0.0,8.0,67,0.00,,---,0.96,VWS V14.01,2013-10-07 19:28:00,
2013-10-07 15:33:00,68.0,57.1,29.86,NW,311,3.0,4.0,68,0.00,,---,0.96,VWS V14.01,2013-10-07 19:33:00,
2013-10-07 15:38:00,68.3,56.5,29.86,NW,319,0.0,4.0,66,0.00,,---,0.96,VWS V14.01,2013-10-07 19:38:00,
2013-10-07 15:43:00,68.5,56.7,29.86,NW,308,1.0,4.0,66,0.00,,---,0.96,VWS V14.01,2013-10-07 19:43:00,
2013-10-07 15:48:00,68.7,56.5,29.85,NW,322,0.0,4.0,65,0.00,,---,0.96,VWS V14.01,2013-10-07 19:48:00,
2013-10-07 15:53:00,68.6,56.0,29.86,WNW,290,1.0,4.0,64,0.00,,---,0.96,VWS V14.01,2013-10-07 19:53:00,
2013-10-07 15:58:00,68.6,56.0,29.86,WSW,248,0.0,4.0,64,0.00,,---,0.96,VWS V14.01,2013-10-07 19:58:00,
2013-10-07 16:03:00,68.5,55.9,29.86,NW,317,2.0,4.0,64,0.00,,---,0.96,VWS V14.01,2013-10-07 20:03:00,
2013-10-07 16:08:00,68.3,55.7,29.86,NNW,346,0.0,4.0,64,0.00,,---,0.96,VWS V14.01,2013-10-07 20:08:00,
2013-10-07 16:13:00,68.2,55.6,29.87,NNE,12,1.0,4.0,64,0.00,,---,0.96,VWS V14.01,2013-10-07 20:13:00,
2013-10-07 16:18:00,68.1,55.0,29.87,NW,313,0.0,4.0,63,0.00,,---,0.96,VWS V14.01,2013-10-07 20:18:00,
2013-10-07 16:23:00,68.4,55.8,29.88,NW,317,0.0,4.0,64,0.00,,---,0.96,VWS V14.01,2013-10-07 20:23:00,
2013-10-07 16:28:00,68.6,56.0,29.87,North,9,0.0,5.0,64,0.00,,---,0.96,VWS V14.01,2013-10-07 20:28:00,
2013-10-07 16:33:00,68.3,56.5,29.88,NNE,22,5.0,5.0,66,0.00,,---,0.96,VWS V14.01,2013-10-07 20:33:00,
2013-10-07 16:38:00,67.6,55.8,29.88,NNE,15,0.0,8.0,66,0.00,,---,0.96,VWS V14.01,2013-10-07 20:38:00,
2013-10-07 16:43:00,67.3,56.0,29.88,NNE,33,2.0,8.0,67,0.00,,---,0.96,VWS V14.01,2013-10-07 20:43:00,
2013-10-07 16:48:00,67.1,56.2,29.88,NNE,28,0.0,8.0,68,0.00,,---,0.96,VWS V14.01,2013-10-07 20:48:00,
2013-10-07 16:53:00,67.1,56.6,29.88,North,5,0.0,8.0,69,0.00,,---,0.96,VWS V14.01,2013-10-07 20:53:00,
2013-10-07 16:58:00,67.1,57.0,29.88,North,5,0.0,8.0,70,0.00,,---,0.96,VWS V14.01,2013-10-07 20:58:00,
2013-10-07 17:03:00,67.2,57.5,29.89,North,5,0.0,0.0,71,0.00,,---,0.96,VWS V14.01,2013-10-07 21:03:00,
2013-10-07 17:08:00,67.2,57.5,29.89,North,5,0.0,2.0,71,0.00,,---,0.96,VWS V14.01,2013-10-07 21:08:00,
2013-10-07 17:13:00,66.8,55.5,29.89,North,5,6.0,8.0,67,0.00,,---,0.96,VWS V14.01,2013-10-07 21:13:00,
2013-10-07 17:18:00,66.4,54.3,29.89,North,360,9.0,11.0,65,0.00,,---,0.96,VWS V14.01,2013-10-07 21:18:00,
2013-10-07 17:23:00,65.8,52.9,29.90,NNW,341,5.0,11.0,63,0.00,,---,0.96,VWS V14.01,2013-10-07 21:23:00,
2013-10-07 17:28:00,64.9,51.2,29.90,North,349,7.0,18.0,61,0.00,,---,0.96,VWS V14.01,2013-10-07 21:28:00,
2013-10-07 17:33:00,64.4,50.7,29.90,NNW,344,7.0,17.0,61,0.00,,---,0.96,VWS V14.01,2013-10-07 21:33:00,
2013-10-07 17:38:00,64.1,50.4,29.91,NW,322,5.0,17.0,61,0.00,,---,0.96,VWS V14.01,2013-10-07 21:38:00,
2013-10-07 17:43:00,63.9,50.2,29.91,NNW,342,6.0,17.0,61,0.00,,---,0.96,VWS V14.01,2013-10-07 21:43:00,
2013-10-07 17:48:00,63.6,49.9,29.92,NNW,327,7.0,17.0,61,0.00,,---,0.96,VWS V14.01,2013-10-07 21:48:00,
2013-10-07 17:53:00,63.5,49.4,29.92,North,360,5.0,17.0,60,0.00,,---,0.96,VWS V14.01,2013-10-07 21:53:00,
2013-10-07 17:58:00,63.4,49.7,29.92,NW,325,5.0,17.0,61,0.00,,---,0.96,VWS V14.01,2013-10-07 21:58:00,
2013-10-07 18:03:00,63.2,49.1,29.93,NNW,341,2.0,7.0,60,0.00,,---,0.96,VWS V14.01,2013-10-07 22:03:00,
2013-10-07 18:08:00,62.9,49.3,29.94,WNW,292,2.0,7.0,61,0.00,,---,0.96,VWS V14.01,2013-10-07 22:08:00,
2013-10-07 18:13:00,62.8,48.7,29.94,NNE,25,0.0,7.0,60,0.00,,---,0.96,VWS V14.01,2013-10-07 22:13:00,
2013-10-07 18:18:00,62.6,49.8,29.94,NNW,331,0.0,7.0,63,0.00,,---,0.96,VWS V14.01,2013-10-07 22:18:00,
2013-10-07 18:23:00,62.3,48.7,29.94,North,355,4.0,10.0,61,0.00,,---,0.96,VWS V14.01,2013-10-07 22:23:00,
2013-10-07 18:28:00,62.2,49.0,29.95,NNW,336,0.0,10.0,62,0.00,,---,0.96,VWS V14.01,2013-10-07 22:28:00,
2013-10-07 18:33:00,62.0,48.4,29.95,NNW,341,1.0,6.0,61,0.00,,---,0.96,VWS V14.01,2013-10-07 22:33:00,
2013-10-07 18:38:00,61.8,48.2,29.95,WNW,303,3.0,11.0,61,0.00,,---,0.96,VWS V14.01,2013-10-07 22:38:00,
2013-10-07 18:43:00,61.5,47.9,29.95,NW,325,4.0,11.0,61,0.00,,---,0.96,VWS V14.01,2013-10-07 22:43:00,
2013-10-07 18:48:00,61.3,47.3,29.96,NNW,347,6.0,11.0,60,0.00,,---,0.96,VWS V14.01,2013-10-07 22:48:00,
2013-10-07 18:53:00,60.8,47.3,29.96,NNW,337,5.0,11.0,61,0.00,,---,0.96,VWS V14.01,2013-10-07 22:53:00,
2013-10-07 18:58:00,60.7,47.6,29.97,NW,306,1.0,11.0,62,0.00,,---,0.96,VWS V14.01,2013-10-07 22:58:00,
2013-10-07 19:03:00,60.5,47.4,29.98,NNW,333,0.0,3.0,62,0.00,,---,0.96,VWS V14.01,2013-10-07 23:03:00,
2013-10-07 19:08:00,60.3,47.7,29.98,NNW,333,0.0,3.0,63,0.00,,---,0.96,VWS V14.01,2013-10-07 23:08:00,
2013-10-07 19:13:00,60.0,48.2,29.99,NNW,333,0.0,3.0,65,0.00,,---,0.96,VWS V14.01,2013-10-07 23:13:00,
2013-10-07 19:18:00,59.5,47.7,29.99,NNW,333,0.0,3.0,65,0.00,,---,0.96,VWS V14.01,2013-10-07 23:18:00,
2013-10-07 19:23:00,59.0,48.1,29.99,NNW,333,0.0,3.0,67,0.00,,---,0.96,VWS V14.01,2013-10-07 23:23:00,
2013-10-07 19:28:00,58.6,48.5,29.99,NNW,333,0.0,3.0,69,0.00,,---,0.96,VWS V14.01,2013-10-07 23:28:00,
2013-10-07 19:33:00,58.2,47.3,30.00,NNW,340,1.0,3.0,67,0.00,,---,0.96,VWS V14.01,2013-10-07 23:33:00,
2013-10-07 19:38:00,58.2,47.3,30.01,NNW,340,0.0,3.0,67,0.00,,---,0.96,VWS V14.01,2013-10-07 23:38:00,
2013-10-07 19:43:00,58.2,46.5,30.01,NNW,340,0.0,3.0,65,0.00,,---,0.96,VWS V14.01,2013-10-07 23:43:00,
2013-10-07 19:48:00,58.4,46.7,30.00,NNW,340,0.0,3.0,65,0.00,,---,0.96,VWS V14.01,2013-10-07 23:48:00,
2013-10-07 19:53:00,58.3,47.0,30.01,NNW,340,0.0,3.0,66,0.00,,---,0.96,VWS V14.01,2013-10-07 23:53:00,
2013-10-07 19:58:00,58.1,46.8,30.02,NNW,340,0.0,3.0,66,0.00,,---,0.96,VWS V14.01,2013-10-07 23:58:00,
2013-10-07 20:03:00,57.8,46.5,30.02,NNW,340,0.0,0.0,66,0.00,,---,0.96,VWS V14.01,2013-10-08 00:03:00,
2013-10-07 20:08:00,58.0,46.3,30.02,NNW,340,1.0,2.0,65,0.00,,---,0.96,VWS V14.01,2013-10-08 00:08:00,
2013-10-07 20:13:00,58.2,46.5,30.02,NNW,340,0.0,2.0,65,0.00,,---,0.96,VWS V14.01,2013-10-08 00:13:00,
2013-10-07 20:18:00,58.3,46.6,30.02,NNW,340,0.0,2.0,65,0.00,,---,0.96,VWS V14.01,2013-10-08 00:18:00,
2013-10-07 20:23:00,58.2,46.9,30.02,NNW,340,0.0,2.0,66,0.00,,---,0.96,VWS V14.01,2013-10-08 00:23:00,
2013-10-07 20:28:00,58.1,46.8,30.02,NNW,340,0.0,2.0,66,0.00,,---,0.96,VWS V14.01,2013-10-08 00:28:00,
2013-10-07 20:33:00,57.8,46.5,30.02,NNW,340,0.0,0.0,66,0.00,,---,0.96,VWS V14.01,2013-10-08 00:33:00,
2013-10-07 20:38:00,57.6,46.7,30.03,NNW,340,0.0,1.0,67,0.00,,---,0.96,VWS V14.01,2013-10-08 00:38:00,
2013-10-07 20:43:00,57.3,46.5,30.03,NNW,340,0.0,1.0,67,0.00,,---,0.96,VWS V14.01,2013-10-08 00:43:00,
2013-10-07 20:48:00,56.9,46.5,30.03,NNW,340,0.0,1.0,68,0.00,,---,0.96,VWS V14.01,2013-10-08 00:48:00,
2013-10-07 20:52:00,56.6,46.9,30.03,NNW,340,0.0,1.0,70,0.00,,---,0.96,VWS V14.01,2013-10-08 00:52:00,
2013-10-07 20:57:00,56.2,46.2,30.03,WNW,296,0.0,2.0,69,0.00,,---,0.96,VWS V14.01,2013-10-08 00:57:00,
2013-10-07 21:02:00,56.1,46.5,30.04,WNW,295,0.0,0.0,70,0.00,,---,0.96,VWS V14.01,2013-10-08 01:02:00,
2013-10-07 21:07:00,55.9,47.4,30.04,WNW,296,0.0,0.0,73,0.00,,---,0.96,VWS V14.01,2013-10-08 01:07:00,
2013-10-07 21:12:00,55.5,47.0,30.04,WNW,296,0.0,0.0,73,0.00,,---,0.96,VWS V14.01,2013-10-08 01:12:00,
2013-10-07 21:17:00,55.1,47.3,30.05,WNW,296,1.0,1.0,75,0.00,,---,0.96,VWS V14.01,2013-10-08 01:17:00,
2013-10-07 21:22:00,54.4,47.3,30.05,WNW,298,0.0,1.0,77,0.00,,---,0.96,VWS V14.01,2013-10-08 01:22:00,
2013-10-07 21:27:00,53.9,47.5,30.05,WNW,298,0.0,1.0,79,0.00,,---,0.96,VWS V14.01,2013-10-08 01:27:00,
2013-10-07 21:32:00,53.2,47.5,30.06,NNE,24,0.0,3.0,81,0.00,,---,0.96,VWS V14.01,2013-10-08 01:32:00,
2013-10-07 21:37:00,52.8,47.5,30.05,NNE,24,0.0,3.0,82,0.00,,---,0.96,VWS V14.01,2013-10-08 01:37:00,
2013-10-07 21:42:00,52.4,47.4,30.05,NE,36,2.0,3.0,83,0.00,,---,0.96,VWS V14.01,2013-10-08 01:42:00,
2013-10-07 21:47:00,52.3,47.0,30.06,NE,40,0.0,3.0,82,0.00,,---,0.96,VWS V14.01,2013-10-08 01:47:00,
2013-10-07 21:52:00,52.2,47.2,30.06,NE,40,0.0,3.0,83,0.00,,---,0.96,VWS V14.01,2013-10-08 01:52:00,
2013-10-07 21:57:00,52.1,47.1,30.06,NE,41,0.0,4.0,83,0.00,,---,0.96,VWS V14.01,2013-10-08 01:57:00,
2013-10-07 22:02:00,52.1,47.1,30.07,NE,41,0.0,0.0,83,0.00,,---,0.96,VWS V14.01,2013-10-08 02:02:00,
2013-10-07 22:07:00,52.0,47.0,30.07,NE,41,0.0,1.0,83,0.00,,---,0.96,VWS V14.01,2013-10-08 02:07:00,
2013-10-07 22:12:00,51.8,46.8,30.07,NE,41,0.0,2.0,83,0.00,,---,0.96,VWS V14.01,2013-10-08 02:12:00,
2013-10-07 22:17:00,51.7,47.0,30.07,NE,42,0.0,2.0,84,0.00,,---,0.96,VWS V14.01,2013-10-08 02:17:00,
2013-10-07 22:22:00,51.4,47.0,30.07,NE,41,1.0,2.0,85,0.00,,---,0.96,VWS V14.01,2013-10-08 02:22:00,
2013-10-07 22:27:00,51.2,46.8,30.07,NE,43,0.0,2.0,85,0.00,,---,0.96,VWS V14.01,2013-10-08 02:27:00,
2013-10-07 22:32:00,51.0,46.7,30.07,NE,43,0.0,0.0,85,0.00,,---,0.96,VWS V14.01,2013-10-08 02:32:00,
2013-10-07 22:37:00,50.9,46.6,30.08,NE,42,0.0,1.0,85,0.00,,---,0.96,VWS V14.01,2013-10-08 02:37:00,
2013-10-07 22:42:00,50.6,46.6,30.08,NE,43,0.0,1.0,86,0.00,,---,0.96,VWS V14.01,2013-10-08 02:42:00,
2013-10-07 22:47:00,50.5,46.5,30.08,NE,44,0.0,1.0,86,0.00,,---,0.96,VWS V14.01,2013-10-08 02:47:00,
2013-10-07 22:52:00,50.5,46.5,30.08,NE,44,2.0,2.0,86,0.00,,---,0.96,VWS V14.01,2013-10-08 02:52:00,
2013-10-07 22:57:00,50.6,46.6,30.08,NE,45,0.0,3.0,86,0.00,,---,0.96,VWS V14.01,2013-10-08 02:57:00,
2013-10-07 23:02:00,50.5,46.5,30.08,NE,45,0.0,0.0,86,0.00,,---,0.96,VWS V14.01,2013-10-08 03:02:00,
2013-10-07 23:07:00,50.4,46.4,30.08,NE,45,0.0,0.0,86,0.00,,---,0.96,VWS V14.01,2013-10-08 03:07:00,
2013-10-07 23:12:00,50.2,46.2,30.09,NE,45,0.0,0.0,86,0.00,,---,0.96,VWS V14.01,2013-10-08 03:12:00,
2013-10-07 23:17:00,50.1,46.1,30.09,NE,45,0.0,1.0,86,0.00,,---,0.96,VWS V14.01,2013-10-08 03:17:00,
2013-10-07 23:22:00,50.0,46.3,30.09,NE,49,0.0,2.0,87,0.00,,---,0.96,VWS V14.01,2013-10-08 03:22:00,
2013-10-07 23:27:00,49.8,46.1,30.09,NE,49,0.0,2.0,87,0.00,,---,0.96,VWS V14.01,2013-10-08 03:27:00,
2013-10-07 23:32:00,49.6,45.9,30.09,NE,49,0.0,0.0,87,0.00,,---,0.96,VWS V14.01,2013-10-08 03:32:00,
2013-10-07 23:37:00,49.4,45.7,30.09,NE,49,0.0,1.0,87,0.00,,---,0.96,VWS V14.01,2013-10-08 03:37:00,
2013-10-07 23:42:00,49.2,45.8,30.09,NE,51,0.0,1.0,88,0.00,,---,0.96,VWS V14.01,2013-10-08 03:42:00,
2013-10-07 23:47:00,49.2,45.8,30.09,NE,51,0.0,1.0,88,0.00,,---,0.96,VWS V14.01,2013-10-08 03:47:00,
2013-10-07 23:52:00,49.1,45.7,30.10,NE,51,0.0,1.0,88,0.00,,---,0.96,VWS V14.01,2013-10-08 03:52:00,
2013-10-07 23:57:00,49.0,45.6,30.10,NE,51,0.0,1.0,88,0.00,,---,0.96,VWS V14.01,2013-10-08 03:57:00,